Tracking 31027 objects as of 19-Jul-2025
HD Live streaming from Space Station
objects crossing your sky now

STARLINK-30866

Track STARLINK-30866 now!
10-day predictions
STARLINK-30866 is classified as:


NORAD ID: 58237
Int'l Code: 2023-171H
Perigee: 565.9 km
Apogee: 566.5 km
Inclination: 43.0 °
Period: 95.8 minutes
Semi major axis: 6937 km
RCS: Unknown
Launch date: November 8, 2023
Source: United States (US)
Launch site: AIR FORCE EASTERN TEST RANGE (AFETR)
Your satellite tracking list
STARLINK-6351
Track 1 satellite(s)




NASA's NSSDC Master Catalog

Two Line Element Set (TLE):
1 58237U 23171H   25199.79910847  .00001193  00000-0  10336-3 0  9990
2 58237  42.9975 116.7726 0000484  36.3904 323.6971 15.02538088 94558
Source of the keplerian elements: AFSPC